Regional Weather Roundup
Issued by NWS Kansas City/Pleasant Hill, MO

Home | Current Version | Previous Version | Text Only | Print | Product List | Glossary On
Versions: 1 2 3 4 5 6 7 8 9 10 11 12 13 14 15 16 17 18 19 20 21 22 23 24 25 26 27 28 29 30 31 32 33 34 35 36 37 38 39 40 41 42 43 44 45 46 47 48 49 50
015
ASUS43 KEAX 230310
RWREAX

WEATHER ROUNDUP FOR EASTERN KANSAS AND NORTHWEST MISSOURI
NATIONAL WEATHER SERVICE KANSAS CITY/PLEASANT HILL MO
1000 PM CDT THU JUN 22 2017

KSZ040-057-103>105-MOZ028-029-037-043-230400-
...KANSAS CITY METROPOLITAN AREA...

CITY           SKY/WX    TMP DP  RH WIND       PRES   REMARKS
K.C. INTL      PTCLDY    78  72  81 S5        29.70R
K.C. DOWNTOWN  PTCLDY    82  74  76 S6        29.69R
LEES SUMMIT    PTCLDY    80  74  81 S5        29.71R
OLATHE - IXD   MOCLDY    78  73  84 S5        29.71R
OLATHE - OJC   CLEAR     78  74  87 S3        29.71R
LAWRENCE       MOCLDY    78  75  90 SE3       29.69R

$$

MOZ001>008-011>017-020>025-030>033-038>040-044>046-053-054-230400-
...NORTHERN AND CENTRAL MISSOURI...

CITY           SKY/WX    TMP DP  RH WIND       PRES   REMARKS
ST. JOSEPH     CLEAR     80  73  79 S9        29.67S
MOSBY          MOCLDY    79  72  78 S3        29.70R
WARRENSBURG    CLEAR     77  72  83 CALM      29.70R
WHITEMAN AFB   PTCLDY    77  77 100 S3        29.69R
CLINTON        CLEAR     77  73  88 MISG      29.71R
SEDALIA        CLEAR     78  75  90 CALM      29.72R
WARSAW         NOT AVBL
CHILLICOTHE      N/A     78  73  84 CALM      29.71R
KIRKSVILLE     CLEAR     76  72  87 S3        29.71S

$$

MOZ041-047>049-056>058-063>065-088>090-097-230400-
...EASTERN AND SOUTHERN MISSOURI...

CITY           SKY/WX    TMP DP  RH WIND       PRES   REMARKS
ST. LOUIS INTL CLOUDY    82  72  71 S16G22    29.75R
SPIRIT OF STL  PTCLDY    79  74  84 VRB5      29.73R
COLUMBIA       CLOUDY    78  74  87 SE6       29.72R
JEFFERSON CITY CLEAR     80  73  79 E6        29.70R
ROLLA          PTCLDY    76  73  91 SE9       29.73S
OSAGE BEACH    CLOUDY    77  73  87 SE3       29.72R
SPRINGFIELD    PTCLDY    79  72  79 SE14      29.72R
BRANSON        MOCLDY    73  72  94 CALM      29.76R
JOPLIN         PTCLDY    79  75  87 SE3       29.70R
WEST PLAINS    CLOUDY    75  72  90 SE3       29.77S

$$

IAZ060-094-KSZ022-034>040-054-083-096-NEZ052-066-093-230400-
...KANSAS...SOUTHEAST NEBRASKA AND IOWA...

CITY           SKY/WX    TMP DP  RH WIND       PRES   REMARKS
TOPEKA         PTCLDY    82  74  76 SE6       29.67S
MANHATTAN      CLEAR     82  70  66 S7        29.63F
EMPORIA        CLEAR     77  72  84 SE7       29.69S
CHANUTE        CLEAR     76  71  85 CALM      29.70R
WICHITA        PTCLDY    81  71  71 SE10      29.67S
OMAHA          MOCLDY    82  68  62 N15       29.69R
LINCOLN        CLOUDY    80  64  58 N18       29.70R
FALLS CITY     CLEAR     78  71  79 SE6       29.66R
LAMONI         CLEAR     78  71  79 S9        29.69R
DES MOINES     MOCLDY    81  71  71 S9        29.65R

$$





USA.gov is the U.S. government's official web portal to all federal, state and local government web resources and services.